Вернуться в каталог

CZ-6A DEB

АктивенPO
NORAD 61500·DEBRIS·🇨🇳 China

Запущен Aug 6, 2024 с Taiyuan Satellite Launch Center

Loading…

Ближайшие Пролёты (ближайшие 24 часа)

TLE

СвежийSource: Space-Track

Эпоха: Sep 14, 2026, 11:07 UTC

1 61500U 24140ABJ 26257.46354495  .00001714  00000-0  82075-3 0  9993
2 61500  88.9774 263.4647 0070625 279.5691  79.7522 14.17382936106551

Отслеживайте CZ-6A DEB в реальном времени с AllMySat

Download on the App Store